Weather History for Doha, Qatar

Change the Weather History Date:

Friday, February 1, 2013

  Actual Average Record
Temperature  
Mean Temperature 70 °F -  
Max Temperature 73 °F 73 °F 91 °F (1999)
Min Temperature 67 °F 57 °F 50 °F (2001)
Cooling Degree Days 5    
Growing Degree Days 20 (Base 50)    
Moisture  
Dew Point 63 °F    
Average Humidity 78    
Maximum Humidity 94    
Minimum Humidity 64    
Precipitation  
Precipitation 0.00 in 0.02 in - ()
Sea Level Pressure  
Sea Level Pressure 29.94 in    
Wind  
Wind Speed 11 mph ()    
Max Wind Speed 18 mph    
Max Gust Speed -    
Visibility 4.3 miles    
Events Rain    
Averages and records for this station are not official NWS values.
T = Trace of Precipitation, MM = Missing Value Source: Averaged Metar Reports

Daily Weather History Graph

Daily Weather History Graph

Search for Another Location

Airport:

Trip Planner

Search our weather history database for the weather conditions in past years. The results will help you decide how hot, cold, wet, or windy it might be!

Date:

Astronomy

Feb. 01, 2013 Rise Set
Actual Time 6:16 AM AST 5:18 PM AST
Civil Twilight 5:52 AM AST 5:42 PM AST
Nautical Twilight 5:25 AM AST 6:09 PM AST
Astronomical Twilight 4:58 AM AST 6:36 PM AST
Moon 10:17 PM AST (2/1) 9:14 AM AST (2/1)
Length of Visible Light 11h 49m
Length of Day
11h 01m
Waning Gibbous, 74% of the Moon is Illuminated
Feb 1
Waning Gibbous
Feb 3
Last Quarter
Feb 10
New
Feb 17
First Quarter
Feb 25
Full

Hourly Weather History & Observations

Time (AST) Temp. Dew Point Humidity Pressure Visibility Wind Dir Wind Speed Gust Speed Precip Events Conditions
12:00 AM 69.8 °F 66.2 °F 88% 29.89 in 3.1 mi North 10.4 mph - N/A   Haze
1:00 AM 69.8 °F 66.2 °F 88% 29.86 in 3.1 mi North 11.5 mph - N/A   Haze
2:00 AM 69.8 °F 66.2 °F 88% 29.86 in 3.1 mi North 12.7 mph - N/A   Haze
2:30 AM 69.8 °F 66.2 °F 88% 29.86 in 3.1 mi North 13.8 mph - N/A   Haze
3:00 AM 70 °F 66 °F 85% 29.87 in 3 mi NNE 13.8 mph - -   Haze
3:00 AM 69.8 °F 66.2 °F 88% 29.86 in 3.1 mi NNE 13.8 mph - N/A   Haze
4:00 AM 69.8 °F 66.2 °F 88% 29.86 in 3.1 mi North 18.4 mph - N/A Rain Light Rain
4:30 AM 68.0 °F 66.2 °F 94% 29.89 in 3.1 mi North 18.4 mph - N/A   Haze
5:00 AM 68.0 °F 64.4 °F 88% 29.89 in 3.1 mi NNE 17.3 mph - N/A   Haze
5:30 AM 68.0 °F 62.6 °F 83% 29.89 in 3.1 mi NNE 16.1 mph - N/A   Haze
6:00 AM 68.0 °F 62.6 °F 83% 29.92 in 3.7 mi NNE 13.8 mph - N/A   Mostly Cloudy
6:30 AM 68.0 °F 62.6 °F 83% 29.92 in 3.7 mi NNE 12.7 mph - N/A   Mostly Cloudy
7:00 AM 68.0 °F 62.6 °F 83% 29.95 in 3.7 mi NNE 11.5 mph - N/A   Unknown
7:30 AM 69.8 °F 62.6 °F 78% 29.95 in 3.7 mi NNE 12.7 mph - N/A   Unknown
8:00 AM 69.8 °F 64.4 °F 83% 29.95 in 3.7 mi NNE 11.5 mph - N/A   Unknown
8:30 AM 69.8 °F 62.6 °F 78% 29.95 in 3.7 mi NE 10.4 mph - N/A   Unknown
9:00 AM 70 °F 63 °F 73% 29.97 in 4 mi NE 9.2 mph - - Rain Light Rain
9:00 AM 69.8 °F 62.6 °F 78% 29.95 in 3.7 mi NE 9.2 mph - N/A Rain Rain
9:30 AM 69.8 °F 64.4 °F 83% 29.95 in 3.7 mi NNE 9.2 mph - N/A Rain Light Rain
10:00 AM 71.6 °F 64.4 °F 78% 29.98 in 3.7 mi NNE 10.4 mph - N/A Rain Light Rain
10:30 AM 71.6 °F 64.4 °F 78% 29.95 in 3.7 mi NNE 9.2 mph - N/A   Mostly Cloudy
11:00 AM 71.6 °F 62.6 °F 73% 29.95 in 4.3 mi NNE 9.2 mph - N/A   Mostly Cloudy
11:30 AM 71.6 °F 60.8 °F 69% 29.95 in 5.0 mi NNE 9.2 mph - N/A   Mostly Cloudy
12:00 PM 71.6 °F 60.8 °F 69% 29.95 in 5.0 mi North 9.2 mph - N/A   Mostly Cloudy
12:30 PM 71.6 °F 62.6 °F 73% 29.92 in 5.0 mi North 10.4 mph - N/A   Mostly Cloudy
1:00 PM 71.6 °F 62.6 °F 73% 29.92 in 5.0 mi North 8.1 mph - N/A   Mostly Cloudy
1:30 PM 71.6 °F 62.6 °F 73% 29.92 in 5.6 mi North 8.1 mph - N/A   Mostly Cloudy
2:00 PM 71.6 °F 62.6 °F 73% 29.92 in 5.6 mi NNE 9.2 mph - N/A   Mostly Cloudy
2:30 PM 73.4 °F 60.8 °F 65% 29.92 in 5.6 mi NNE 10.4 mph - N/A   Mostly Cloudy
3:00 PM 72 °F 62 °F 64% 29.93 in 6 mi NNE 10.4 mph - -  
3:00 PM 71.6 °F 62.6 °F 73% 29.92 in 5.6 mi NNE 10.4 mph - N/A   Scattered Clouds
4:00 PM 71.6 °F 62.6 °F 73% 29.95 in 5.6 mi NNE 11.5 mph - N/A   Unknown
4:30 PM 69.8 °F 62.6 °F 78% 29.95 in 5.0 mi NNE 11.5 mph - N/A   Unknown
5:00 PM 69.8 °F 62.6 °F 78% 29.95 in 4.3 mi NNE 11.5 mph - N/A   Unknown
5:30 PM 69.8 °F 62.6 °F 78% 29.95 in 3.7 mi North 10.4 mph - N/A   Unknown
6:00 PM 69.8 °F 62.6 °F 78% 29.95 in 3.7 mi North 9.2 mph - N/A   Unknown
6:30 PM 69.8 °F 62.6 °F 78% 29.98 in 4.3 mi North 9.2 mph - N/A   Unknown
7:00 PM 69.8 °F 60.8 °F 73% 29.98 in 4.3 mi North 9.2 mph - N/A   Unknown
8:00 PM 69.8 °F 60.8 °F 73% 29.98 in 5.6 mi NNW 12.7 mph - N/A   Unknown
9:00 PM 68 °F 60 °F 70% 30.01 in 6 mi NNW 10.4 mph - -   Partly Cloudy
9:00 PM 68.0 °F 60.8 °F 78% 30.01 in - NNW 10.4 mph - N/A   Clear
9:30 PM 68.0 °F 60.8 °F 78% 30.01 in 5.6 mi NNW 11.5 mph - N/A   Unknown
10:00 PM 68.0 °F 60.8 °F 78% 30.01 in 5.0 mi NNW 11.5 mph - N/A   Unknown
10:30 PM 68.0 °F 60.8 °F 78% 30.01 in 5.0 mi NNW 9.2 mph - N/A   Unknown
11:00 PM 68.0 °F 59.0 °F 73% 29.98 in 5.0 mi NNW 9.2 mph - N/A   Unknown